Year,Month,Day,Hour,Minute,Value (Times are PST for temperature in C)
2015,05,20,00,00,11.20
2015,05,20,00,01,11.20
2015,05,20,00,02,11.20
2015,05,20,00,03,11.20
2015,05,20,00,04,11.20
2015,05,20,00,05,11.20
2015,05,20,00,06,11.20
2015,05,20,00,07,11.20
2015,05,20,00,08,11.20
2015,05,20,00,09,11.20
2015,05,20,00,10,11.20
2015,05,20,00,11,11.20
2015,05,20,00,12,11.20
2015,05,20,00,13,11.20
2015,05,20,00,14,11.20
2015,05,20,00,15,11.20
2015,05,20,00,16,11.20
2015,05,20,00,17,11.10
2015,05,20,00,18,11.10
2015,05,20,00,19,11.10
2015,05,20,00,20,11.10
2015,05,20,00,21,11.10
2015,05,20,00,22,11.10
2015,05,20,00,23,11.10
2015,05,20,00,24,11.10
2015,05,20,00,25,11.10
2015,05,20,00,26,11.10
2015,05,20,00,27,11.10
2015,05,20,00,28,11.10
2015,05,20,00,29,11.10
2015,05,20,00,30,11.10
2015,05,20,00,31,11.10
2015,05,20,00,32,11.10
2015,05,20,00,33,11.10
2015,05,20,00,34,11.10
2015,05,20,00,35,11.10
2015,05,20,00,36,11.10
2015,05,20,00,37,11.10
2015,05,20,00,38,11.10
2015,05,20,00,39,11.10
2015,05,20,00,40,11.10
2015,05,20,00,41,11.00
2015,05,20,00,42,11.00
2015,05,20,00,43,11.00
2015,05,20,00,44,11.00
2015,05,20,00,45,11.00
2015,05,20,00,46,11.00
2015,05,20,00,47,11.00
2015,05,20,00,48,11.00
2015,05,20,00,49,11.00
2015,05,20,00,50,11.00
2015,05,20,00,51,11.00
2015,05,20,00,52,10.90
2015,05,20,00,53,10.90
2015,05,20,00,54,10.90
2015,05,20,00,55,10.90
2015,05,20,00,56,10.90
2015,05,20,00,57,10.90
2015,05,20,00,58,10.90
2015,05,20,00,59,10.90
2015,05,20,01,00,10.90
2015,05,20,01,01,10.90
2015,05,20,01,02,10.90
2015,05,20,01,03,10.90
2015,05,20,01,04,10.90
2015,05,20,01,05,10.90
2015,05,20,01,06,10.90
2015,05,20,01,07,10.90
2015,05,20,01,08,10.90
2015,05,20,01,09,10.90
2015,05,20,01,10,10.90
2015,05,20,01,11,10.90
2015,05,20,01,12,10.90
2015,05,20,01,13,10.90
2015,05,20,01,14,10.90
2015,05,20,01,15,10.90
2015,05,20,01,16,10.90
2015,05,20,01,17,10.90
2015,05,20,01,18,10.90
2015,05,20,01,19,10.90
2015,05,20,01,20,10.90
2015,05,20,01,21,10.90
2015,05,20,01,22,10.90
2015,05,20,01,23,10.90
2015,05,20,01,24,10.90
2015,05,20,01,25,10.90
2015,05,20,01,26,10.90
2015,05,20,01,27,10.90
2015,05,20,01,28,10.90
2015,05,20,01,29,10.90
2015,05,20,01,30,10.80
2015,05,20,01,31,10.80
2015,05,20,01,32,10.80
2015,05,20,01,33,10.80
2015,05,20,01,34,10.80
2015,05,20,01,35,10.80
2015,05,20,01,36,10.80
2015,05,20,01,37,10.80
2015,05,20,01,38,10.80
2015,05,20,01,39,10.80
2015,05,20,01,40,10.80
2015,05,20,01,41,10.80
2015,05,20,01,42,10.80
2015,05,20,01,43,10.80
2015,05,20,01,44,10.80
2015,05,20,01,45,10.70
2015,05,20,01,46,10.70
2015,05,20,01,47,10.70
2015,05,20,01,48,10.70
2015,05,20,01,49,10.70
2015,05,20,01,50,10.70
2015,05,20,01,51,10.70
2015,05,20,01,52,10.70
2015,05,20,01,53,10.70
2015,05,20,01,54,10.70
2015,05,20,01,55,10.70
2015,05,20,01,56,10.70
2015,05,20,01,57,10.70
2015,05,20,01,58,10.60
2015,05,20,01,59,10.60
2015,05,20,02,00,10.60
2015,05,20,02,01,10.60
2015,05,20,02,02,10.60
2015,05,20,02,03,10.60
2015,05,20,02,04,10.50
2015,05,20,02,05,10.50
2015,05,20,02,06,10.50
2015,05,20,02,07,10.50
2015,05,20,02,08,10.40
2015,05,20,02,09,10.40
2015,05,20,02,10,10.40
2015,05,20,02,11,10.40
2015,05,20,02,12,10.40
2015,05,20,02,13,10.40
2015,05,20,02,14,10.30
2015,05,20,02,15,10.30
2015,05,20,02,16,10.30
2015,05,20,02,17,10.30
2015,05,20,02,18,10.30
2015,05,20,02,19,10.30
2015,05,20,02,20,10.30
2015,05,20,02,21,10.30
2015,05,20,02,22,10.30
2015,05,20,02,23,10.30
2015,05,20,02,24,10.30
2015,05,20,02,25,10.30
2015,05,20,02,26,10.30
2015,05,20,02,27,10.30
2015,05,20,02,28,10.20
2015,05,20,02,29,10.20
2015,05,20,02,30,10.20
2015,05,20,02,31,10.20
2015,05,20,02,32,10.20
2015,05,20,02,33,10.20
2015,05,20,02,34,10.20
2015,05,20,02,35,10.20
2015,05,20,02,36,10.20
2015,05,20,02,37,10.10
2015,05,20,02,38,10.10
2015,05,20,02,39,10.10
2015,05,20,02,40,10.10
2015,05,20,02,41,10.10
2015,05,20,02,42,10.10
2015,05,20,02,43,10.10
2015,05,20,02,44,10.10
2015,05,20,02,45,10.10
2015,05,20,02,46,10.10
2015,05,20,02,47,10.10
2015,05,20,02,48,10.10
2015,05,20,02,49,10.10
2015,05,20,02,50,10.10
2015,05,20,02,51,10.10
2015,05,20,02,52,10.10
2015,05,20,02,53,10.10
2015,05,20,02,54,10.10
2015,05,20,02,55,10.10
2015,05,20,02,56,10.10
2015,05,20,02,57,10.10
2015,05,20,02,58,10.10
2015,05,20,02,59,10.10
2015,05,20,03,00,10.10
2015,05,20,03,01,10.10
2015,05,20,03,02,10.10
2015,05,20,03,03,10.10
2015,05,20,03,04,10.00
2015,05,20,03,05,10.00
2015,05,20,03,06,10.00
2015,05,20,03,07,10.00
2015,05,20,03,08,10.00
2015,05,20,03,09,10.00
2015,05,20,03,10,10.00
2015,05,20,03,11,10.00
2015,05,20,03,12,10.00
2015,05,20,03,13,10.00
2015,05,20,03,14,9.90
2015,05,20,03,15,9.90
2015,05,20,03,16,9.90
2015,05,20,03,17,9.90
2015,05,20,03,18,10.00
2015,05,20,03,19,10.00
2015,05,20,03,20,10.00
2015,05,20,03,21,10.00
2015,05,20,03,22,10.00
2015,05,20,03,23,10.00
2015,05,20,03,24,10.00
2015,05,20,03,25,10.00
2015,05,20,03,26,10.00
2015,05,20,03,27,10.00
2015,05,20,03,28,10.00
2015,05,20,03,29,10.00
2015,05,20,03,30,10.00
2015,05,20,03,31,10.00
2015,05,20,03,32,10.00
2015,05,20,03,33,10.00
2015,05,20,03,34,10.00
2015,05,20,03,35,10.00
2015,05,20,03,36,10.00
2015,05,20,03,37,10.00
2015,05,20,03,38,10.00
2015,05,20,03,39,9.90
2015,05,20,03,40,9.90
2015,05,20,03,41,9.90
2015,05,20,03,42,9.90
2015,05,20,03,43,9.90
2015,05,20,03,44,9.90
2015,05,20,03,45,9.90
2015,05,20,03,46,9.90
2015,05,20,03,47,9.90
2015,05,20,03,48,9.90
2015,05,20,03,49,9.80
2015,05,20,03,50,9.80
2015,05,20,03,51,9.80
2015,05,20,03,52,9.80
2015,05,20,03,53,9.80
2015,05,20,03,54,9.80
2015,05,20,03,55,9.80
2015,05,20,03,56,9.80
2015,05,20,03,57,9.80
2015,05,20,03,58,9.80
2015,05,20,03,59,9.80
2015,05,20,04,00,9.80
2015,05,20,04,01,9.80
2015,05,20,04,02,9.80
2015,05,20,04,03,9.70
2015,05,20,04,04,9.70
2015,05,20,04,05,9.70
2015,05,20,04,06,9.70
2015,05,20,04,07,9.70
2015,05,20,04,08,9.70
2015,05,20,04,09,9.70
2015,05,20,04,10,9.70
2015,05,20,04,11,9.70
2015,05,20,04,12,9.70
2015,05,20,04,13,9.60
2015,05,20,04,14,9.60
2015,05,20,04,15,9.60
2015,05,20,04,16,9.60
2015,05,20,04,17,9.60
2015,05,20,04,18,9.60
2015,05,20,04,19,9.60
2015,05,20,04,20,9.60
2015,05,20,04,21,9.60
2015,05,20,04,22,9.60
2015,05,20,04,23,9.60
2015,05,20,04,24,9.60
2015,05,20,04,25,9.60
2015,05,20,04,26,9.50
2015,05,20,04,27,9.50
2015,05,20,04,28,9.50
2015,05,20,04,29,9.50
2015,05,20,04,30,9.50
2015,05,20,04,31,9.40
2015,05,20,04,32,9.40
2015,05,20,04,33,9.40
2015,05,20,04,34,9.40
2015,05,20,04,35,9.40
2015,05,20,04,36,9.40
2015,05,20,04,37,9.40
2015,05,20,04,38,9.30
2015,05,20,04,39,9.30
2015,05,20,04,40,9.30
2015,05,20,04,41,9.30
2015,05,20,04,42,9.30
2015,05,20,04,43,9.30
2015,05,20,04,44,9.30
2015,05,20,04,45,9.30
2015,05,20,04,46,9.30
2015,05,20,04,47,9.30
2015,05,20,04,48,9.20
2015,05,20,04,49,9.20
2015,05,20,04,50,9.20
2015,05,20,04,51,9.20
2015,05,20,04,52,9.30
2015,05,20,04,53,9.20
2015,05,20,04,54,9.30
2015,05,20,04,55,9.30
2015,05,20,04,56,9.30
2015,05,20,04,57,9.30
2015,05,20,04,58,9.30
2015,05,20,04,59,9.30
2015,05,20,05,00,9.30
2015,05,20,05,01,9.30
2015,05,20,05,02,9.30
2015,05,20,05,03,9.30
2015,05,20,05,04,9.30
2015,05,20,05,05,9.30
2015,05,20,05,06,9.30
2015,05,20,05,07,9.30
2015,05,20,05,08,9.30
2015,05,20,05,09,9.30
2015,05,20,05,10,9.30
2015,05,20,05,11,9.30
2015,05,20,05,12,9.30
2015,05,20,05,13,9.30
2015,05,20,05,14,9.30
2015,05,20,05,15,9.30
2015,05,20,05,16,9.30
2015,05,20,05,17,9.40
2015,05,20,05,18,9.40
2015,05,20,05,19,9.40
2015,05,20,05,20,9.40
2015,05,20,05,21,9.40
2015,05,20,05,22,9.40
2015,05,20,05,23,9.50
2015,05,20,05,24,9.50
2015,05,20,05,25,9.60
2015,05,20,05,26,9.60
2015,05,20,05,27,9.70
2015,05,20,05,28,9.70
2015,05,20,05,29,9.70
2015,05,20,05,30,9.70
2015,05,20,05,31,9.70
2015,05,20,05,32,9.70
2015,05,20,05,33,9.70
2015,05,20,05,34,9.70
2015,05,20,05,35,9.70
2015,05,20,05,36,9.70
2015,05,20,05,37,9.70
2015,05,20,05,38,9.70
2015,05,20,05,39,9.70
2015,05,20,05,40,9.70
2015,05,20,05,41,9.70
2015,05,20,05,42,9.70
2015,05,20,05,43,9.70
2015,05,20,05,44,9.70
2015,05,20,05,45,9.70
2015,05,20,05,46,9.70
2015,05,20,05,47,9.70
2015,05,20,05,48,9.70
2015,05,20,05,49,9.70
2015,05,20,05,50,9.70
2015,05,20,05,51,9.70
2015,05,20,05,52,9.70
2015,05,20,05,53,9.70
2015,05,20,05,54,9.70
2015,05,20,05,55,9.70
2015,05,20,05,56,9.70
2015,05,20,05,57,9.70
2015,05,20,05,58,9.70
2015,05,20,05,59,9.70
2015,05,20,06,00,9.70
2015,05,20,06,01,9.70
2015,05,20,06,02,9.70
2015,05,20,06,03,9.70
2015,05,20,06,04,9.70
2015,05,20,06,05,9.70
2015,05,20,06,06,9.70
2015,05,20,06,07,9.70
2015,05,20,06,08,9.70
2015,05,20,06,09,9.70
2015,05,20,06,10,9.70
2015,05,20,06,11,9.70
2015,05,20,06,12,9.80
2015,05,20,06,13,9.80
2015,05,20,06,14,9.80
2015,05,20,06,15,9.80
2015,05,20,06,16,9.80
2015,05,20,06,17,9.80
2015,05,20,06,18,9.80
2015,05,20,06,19,9.80
2015,05,20,06,20,9.80
2015,05,20,06,21,9.80
2015,05,20,06,22,9.80
2015,05,20,06,23,9.80
2015,05,20,06,24,9.80
2015,05,20,06,25,9.80
2015,05,20,06,26,9.90
2015,05,20,06,27,9.90
2015,05,20,06,28,9.90
2015,05,20,06,29,9.90
2015,05,20,06,30,9.90
2015,05,20,06,31,9.90
2015,05,20,06,32,9.90
2015,05,20,06,33,9.90
2015,05,20,06,34,9.90
2015,05,20,06,35,10.00
2015,05,20,06,36,10.00
2015,05,20,06,37,10.00
2015,05,20,06,38,10.00
2015,05,20,06,39,10.10
2015,05,20,06,40,10.10
2015,05,20,06,41,10.10
2015,05,20,06,42,10.10
2015,05,20,06,43,10.20
2015,05,20,06,44,10.20
2015,05,20,06,45,10.20
2015,05,20,06,46,10.30
2015,05,20,06,47,10.30
2015,05,20,06,48,10.40
2015,05,20,06,49,10.40
2015,05,20,06,50,10.50
2015,05,20,06,51,10.60
2015,05,20,06,52,10.60
2015,05,20,06,53,10.60
2015,05,20,06,54,10.60
2015,05,20,06,55,10.60
2015,05,20,06,56,10.70
2015,05,20,06,57,10.70
2015,05,20,06,58,10.70
2015,05,20,06,59,10.70
2015,05,20,07,00,10.70
2015,05,20,07,01,10.70
2015,05,20,07,02,10.70
2015,05,20,07,03,10.70
2015,05,20,07,04,10.70
2015,05,20,07,05,10.80
2015,05,20,07,06,10.80
2015,05,20,07,07,10.80
2015,05,20,07,08,10.80
2015,05,20,07,09,10.80
2015,05,20,07,10,10.80
2015,05,20,07,11,10.90
2015,05,20,07,12,10.90
2015,05,20,07,13,10.90
2015,05,20,07,14,10.90
2015,05,20,07,15,11.00
2015,05,20,07,16,11.00
2015,05,20,07,17,11.00
2015,05,20,07,18,11.00
2015,05,20,07,19,11.00
2015,05,20,07,20,11.10
2015,05,20,07,21,11.10
2015,05,20,07,22,11.10
2015,05,20,07,23,11.10
2015,05,20,07,24,11.20
2015,05,20,07,25,11.20
2015,05,20,07,26,11.20
2015,05,20,07,27,11.30
2015,05,20,07,28,11.30
2015,05,20,07,29,11.30
2015,05,20,07,30,11.40
2015,05,20,07,31,11.40
2015,05,20,07,32,11.40
2015,05,20,07,33,11.40
2015,05,20,07,34,11.40
2015,05,20,07,35,11.40
2015,05,20,07,36,11.40
2015,05,20,07,37,11.50
2015,05,20,07,38,11.50
2015,05,20,07,39,11.50
2015,05,20,07,40,11.60
2015,05,20,07,41,11.60
2015,05,20,07,42,11.70
2015,05,20,07,43,11.70
2015,05,20,07,44,11.70
2015,05,20,07,45,11.70
2015,05,20,07,46,11.70
2015,05,20,07,47,11.70
2015,05,20,07,48,11.80
2015,05,20,07,49,11.80
2015,05,20,07,50,11.80
2015,05,20,07,51,11.80
2015,05,20,07,52,11.80
2015,05,20,07,53,11.80
2015,05,20,07,54,11.80
2015,05,20,07,55,11.90
2015,05,20,07,56,11.90
2015,05,20,07,57,11.90
2015,05,20,07,58,11.90
2015,05,20,07,59,12.00
2015,05,20,08,00,12.00
2015,05,20,08,01,12.10
2015,05,20,08,02,12.20
2015,05,20,08,03,12.30
2015,05,20,08,04,12.40
2015,05,20,08,05,12.60
2015,05,20,08,06,12.70
2015,05,20,08,07,12.80
2015,05,20,08,08,12.90
2015,05,20,08,09,13.00
2015,05,20,08,10,13.10
2015,05,20,08,11,13.20
2015,05,20,08,12,13.30
2015,05,20,08,13,13.30
2015,05,20,08,14,13.40
2015,05,20,08,15,13.50
2015,05,20,08,16,13.60
2015,05,20,08,17,13.60
2015,05,20,08,18,13.70
2015,05,20,08,19,13.80
2015,05,20,08,20,13.90
2015,05,20,08,21,14.00
2015,05,20,08,22,14.00
2015,05,20,08,23,14.10
2015,05,20,08,24,14.20
2015,05,20,08,25,14.30
2015,05,20,08,26,14.30
2015,05,20,08,27,14.40
2015,05,20,08,28,14.40
2015,05,20,08,29,14.40
2015,05,20,08,30,14.40
2015,05,20,08,31,14.40
2015,05,20,08,32,14.50
2015,05,20,08,33,14.50
2015,05,20,08,34,14.60
2015,05,20,08,35,14.60
2015,05,20,08,36,14.60
2015,05,20,08,37,14.70
2015,05,20,08,38,14.80
2015,05,20,08,39,14.80
2015,05,20,08,40,14.80
2015,05,20,08,41,14.90
2015,05,20,08,42,14.90
2015,05,20,08,43,14.90
2015,05,20,08,44,14.90
2015,05,20,08,45,14.90
2015,05,20,08,46,14.90
2015,05,20,08,47,14.90
2015,05,20,08,48,14.90
2015,05,20,08,49,14.90
2015,05,20,08,50,15.00
2015,05,20,08,51,14.90
2015,05,20,08,52,15.00
2015,05,20,08,53,15.10
2015,05,20,08,54,15.20
2015,05,20,08,55,15.20
2015,05,20,08,56,15.30
2015,05,20,08,57,15.30
2015,05,20,08,58,15.30
2015,05,20,08,59,15.30
2015,05,20,09,00,15.20
2015,05,20,09,01,15.30
2015,05,20,09,02,15.20
2015,05,20,09,03,15.20
2015,05,20,09,04,15.20
2015,05,20,09,05,15.20
2015,05,20,09,06,15.20
2015,05,20,09,07,15.20
2015,05,20,09,08,15.20
2015,05,20,09,09,15.30
2015,05,20,09,10,15.30
2015,05,20,09,11,15.30
2015,05,20,09,12,15.30
2015,05,20,09,13,15.40
2015,05,20,09,14,15.40
2015,05,20,09,15,15.40
2015,05,20,09,16,15.50
2015,05,20,09,17,15.50
2015,05,20,09,18,15.60
2015,05,20,09,19,15.60
2015,05,20,09,20,15.60
2015,05,20,09,21,15.60
2015,05,20,09,22,15.50
2015,05,20,09,23,15.50
2015,05,20,09,24,15.40
2015,05,20,09,25,15.40
2015,05,20,09,26,15.40
2015,05,20,09,27,15.40
2015,05,20,09,28,15.30
2015,05,20,09,29,15.30
2015,05,20,09,30,15.30
2015,05,20,09,31,15.40
2015,05,20,09,32,15.50
2015,05,20,09,33,15.60
2015,05,20,09,34,15.60
2015,05,20,09,35,15.60
2015,05,20,09,36,15.70
2015,05,20,09,37,15.70
2015,05,20,09,38,15.80
2015,05,20,09,39,15.80
2015,05,20,09,40,15.80
2015,05,20,09,41,15.70
2015,05,20,09,42,15.70
2015,05,20,09,43,15.70
2015,05,20,09,44,15.70
2015,05,20,09,45,15.70
2015,05,20,09,46,15.70
2015,05,20,09,47,15.70
2015,05,20,09,48,15.70
2015,05,20,09,49,15.60
2015,05,20,09,50,15.50
2015,05,20,09,51,15.40
2015,05,20,09,52,15.40
2015,05,20,09,53,15.30
2015,05,20,09,54,15.30
2015,05,20,09,55,15.30
2015,05,20,09,56,15.30
2015,05,20,09,57,15.20
2015,05,20,09,58,15.20
2015,05,20,09,59,15.20
2015,05,20,10,00,15.30
2015,05,20,10,01,15.30
2015,05,20,10,02,15.30
2015,05,20,10,03,15.30
2015,05,20,10,04,15.30
2015,05,20,10,05,15.30
2015,05,20,10,06,15.30
2015,05,20,10,07,15.30
2015,05,20,10,08,15.20
2015,05,20,10,09,15.30
2015,05,20,10,10,15.30
2015,05,20,10,11,15.40
2015,05,20,10,12,15.50
2015,05,20,10,13,15.40
2015,05,20,10,14,15.30
2015,05,20,10,15,15.30
2015,05,20,10,16,15.20
2015,05,20,10,17,15.20
2015,05,20,10,18,15.10
2015,05,20,10,19,15.10
2015,05,20,10,20,15.20
2015,05,20,10,21,15.20
2015,05,20,10,22,15.30
2015,05,20,10,23,15.40
2015,05,20,10,24,15.50
2015,05,20,10,25,15.50
2015,05,20,10,26,15.60
2015,05,20,10,27,15.60
2015,05,20,10,28,15.60
2015,05,20,10,29,15.60
2015,05,20,10,30,15.50
2015,05,20,10,31,15.50
2015,05,20,10,32,15.50
2015,05,20,10,33,15.50
2015,05,20,10,34,15.50
2015,05,20,10,35,15.50
2015,05,20,10,36,15.50
2015,05,20,10,37,15.60
2015,05,20,10,38,15.60
2015,05,20,10,39,15.70
2015,05,20,10,40,15.70
2015,05,20,10,41,15.80
2015,05,20,10,42,15.90
2015,05,20,10,43,15.90
2015,05,20,10,44,16.00
2015,05,20,10,45,16.10
2015,05,20,10,46,16.20
2015,05,20,10,47,16.20
2015,05,20,10,48,16.20
2015,05,20,10,49,16.30
2015,05,20,10,50,16.40
2015,05,20,10,51,16.60
2015,05,20,10,52,16.70
2015,05,20,10,53,16.80
2015,05,20,10,54,16.90
2015,05,20,10,55,16.90
2015,05,20,10,56,16.90
2015,05,20,10,57,16.90
2015,05,20,10,58,16.90
2015,05,20,10,59,16.90
2015,05,20,11,00,16.90
2015,05,20,11,01,16.90
2015,05,20,11,02,16.90
2015,05,20,11,03,16.80
2015,05,20,11,04,16.80
2015,05,20,11,05,16.70
2015,05,20,11,06,16.70
2015,05,20,11,07,16.80
2015,05,20,11,08,16.80
2015,05,20,11,09,16.90
2015,05,20,11,10,17.00
2015,05,20,11,11,17.00
2015,05,20,11,12,17.10
2015,05,20,11,13,17.20
2015,05,20,11,14,17.30
2015,05,20,11,15,17.30
2015,05,20,11,16,17.40
2015,05,20,11,17,17.40
2015,05,20,11,18,17.30
2015,05,20,11,19,17.40
2015,05,20,11,20,17.50
2015,05,20,11,21,17.50
2015,05,20,11,22,17.60
2015,05,20,11,23,17.60
2015,05,20,11,24,17.60
2015,05,20,11,25,17.50
2015,05,20,11,26,17.50
2015,05,20,11,27,17.40
2015,05,20,11,28,17.40
2015,05,20,11,29,17.30
2015,05,20,11,30,17.30
2015,05,20,11,31,17.30
2015,05,20,11,32,17.30
2015,05,20,11,33,17.30
2015,05,20,11,34,17.30
2015,05,20,11,35,17.30
2015,05,20,11,36,17.30
2015,05,20,11,37,17.50
2015,05,20,11,38,17.60
2015,05,20,11,39,17.60
2015,05,20,11,40,17.60
2015,05,20,11,41,17.70
2015,05,20,11,42,17.80
2015,05,20,11,43,17.80
2015,05,20,11,44,17.80
2015,05,20,11,45,17.90
2015,05,20,11,46,17.90
2015,05,20,11,47,18.00
2015,05,20,11,48,18.00
2015,05,20,11,49,18.10
2015,05,20,11,50,18.20
2015,05,20,11,51,18.40
2015,05,20,11,52,18.50
2015,05,20,11,53,18.60
2015,05,20,11,54,18.70
2015,05,20,11,55,18.70
2015,05,20,11,56,18.70
2015,05,20,11,57,18.50
2015,05,20,11,58,18.30
2015,05,20,11,59,18.20
2015,05,20,12,00,18.10
2015,05,20,12,01,18.10
2015,05,20,12,02,18.00
2015,05,20,12,03,18.00
2015,05,20,12,04,18.10
2015,05,20,12,05,18.10
2015,05,20,12,06,18.00
2015,05,20,12,07,18.00
2015,05,20,12,08,17.90
2015,05,20,12,09,17.90
2015,05,20,12,10,17.90
2015,05,20,12,11,17.90
2015,05,20,12,12,17.90
2015,05,20,12,13,18.00
2015,05,20,12,14,18.00
2015,05,20,12,15,18.00
2015,05,20,12,16,18.00
2015,05,20,12,17,18.10
2015,05,20,12,18,18.10
2015,05,20,12,19,18.00
2015,05,20,12,20,18.00
2015,05,20,12,21,18.00
2015,05,20,12,22,17.90
2015,05,20,12,23,17.90
2015,05,20,12,24,17.80
2015,05,20,12,25,17.90
2015,05,20,12,26,18.00
2015,05,20,12,27,18.00
2015,05,20,12,28,18.00
2015,05,20,12,29,18.00
2015,05,20,12,30,18.10
2015,05,20,12,31,18.00
2015,05,20,12,32,18.00
2015,05,20,12,33,17.90
2015,05,20,12,34,18.00
2015,05,20,12,35,18.00
2015,05,20,12,36,18.00
2015,05,20,12,37,18.00
2015,05,20,12,38,17.90
2015,05,20,12,39,17.90
2015,05,20,12,40,17.90
2015,05,20,12,41,17.90
2015,05,20,12,42,17.90
2015,05,20,12,43,17.90
2015,05,20,12,44,18.00
2015,05,20,12,45,18.10
2015,05,20,12,46,18.10
2015,05,20,12,47,18.10
2015,05,20,12,48,18.00
2015,05,20,12,49,18.00
2015,05,20,12,50,17.90
2015,05,20,12,51,17.80
2015,05,20,12,52,17.70
2015,05,20,12,53,17.70
2015,05,20,12,54,17.60
2015,05,20,12,55,17.60
2015,05,20,12,56,17.50
2015,05,20,12,57,17.50
2015,05,20,12,58,17.60
2015,05,20,12,59,17.60
2015,05,20,13,00,17.60
2015,05,20,13,01,17.60
2015,05,20,13,02,17.60
2015,05,20,13,03,17.60
2015,05,20,13,04,17.70
2015,05,20,13,05,17.70
2015,05,20,13,06,17.70
2015,05,20,13,07,17.70
2015,05,20,13,08,17.70
2015,05,20,13,09,17.70
2015,05,20,13,10,17.70
2015,05,20,13,11,17.70
2015,05,20,13,12,17.70
2015,05,20,13,13,17.70
2015,05,20,13,14,17.70
2015,05,20,13,15,17.70
2015,05,20,13,16,17.70
2015,05,20,13,17,17.80
2015,05,20,13,18,17.80
2015,05,20,13,19,17.80
2015,05,20,13,20,17.80
2015,05,20,13,21,17.70
2015,05,20,13,22,17.60
2015,05,20,13,23,17.60
2015,05,20,13,24,17.50
2015,05,20,13,25,17.50
2015,05,20,13,26,17.40
2015,05,20,13,27,17.40
2015,05,20,13,28,17.40
2015,05,20,13,29,17.40
2015,05,20,13,30,17.50
2015,05,20,13,31,17.50
2015,05,20,13,32,17.60
2015,05,20,13,33,17.60
2015,05,20,13,34,17.60
2015,05,20,13,35,17.70
2015,05,20,13,36,17.80
2015,05,20,13,37,17.90
2015,05,20,13,38,18.00
2015,05,20,13,39,18.10
2015,05,20,13,40,18.20
2015,05,20,13,41,18.20
2015,05,20,13,42,18.20
2015,05,20,13,43,18.20
2015,05,20,13,44,18.20
2015,05,20,13,45,18.30
2015,05,20,13,46,18.30
2015,05,20,13,47,18.30
2015,05,20,13,48,18.30
2015,05,20,13,49,18.40
2015,05,20,13,50,18.40
2015,05,20,13,51,18.50
2015,05,20,13,52,18.50
2015,05,20,13,53,18.60
2015,05,20,13,54,18.70
2015,05,20,13,55,18.70
2015,05,20,13,56,18.70
2015,05,20,13,57,18.70
2015,05,20,13,58,18.80
2015,05,20,13,59,18.80
2015,05,20,14,00,18.70
2015,05,20,14,01,18.60
2015,05,20,14,02,18.50
2015,05,20,14,03,18.50
2015,05,20,14,04,18.50
2015,05,20,14,05,18.60
2015,05,20,14,06,18.70
2015,05,20,14,07,18.70
2015,05,20,14,08,18.60
2015,05,20,14,09,18.50
2015,05,20,14,10,18.50
2015,05,20,14,11,18.40
2015,05,20,14,12,18.40
2015,05,20,14,13,18.40
2015,05,20,14,14,18.40
2015,05,20,14,15,18.40
2015,05,20,14,16,18.40
2015,05,20,14,17,18.50
2015,05,20,14,18,18.50
2015,05,20,14,19,18.60
2015,05,20,14,20,18.60
2015,05,20,14,21,18.70
2015,05,20,14,22,18.70
2015,05,20,14,23,18.90
2015,05,20,14,24,19.00
2015,05,20,14,25,19.10
2015,05,20,14,26,19.20
2015,05,20,14,27,19.30
2015,05,20,14,28,19.40
2015,05,20,14,29,19.40
2015,05,20,14,30,19.30
2015,05,20,14,31,19.20
2015,05,20,14,32,19.20
2015,05,20,14,33,19.20
2015,05,20,14,34,19.10
2015,05,20,14,35,19.10
2015,05,20,14,36,19.10
2015,05,20,14,37,19.10
2015,05,20,14,38,19.20
2015,05,20,14,39,19.20
2015,05,20,14,40,19.30
2015,05,20,14,41,19.40
2015,05,20,14,42,19.40
2015,05,20,14,43,19.40
2015,05,20,14,44,19.50
2015,05,20,14,45,19.60
2015,05,20,14,46,19.70
2015,05,20,14,47,19.70
2015,05,20,14,48,19.80
2015,05,20,14,49,19.80
2015,05,20,14,50,19.80
2015,05,20,14,51,19.70
2015,05,20,14,52,19.70
2015,05,20,14,53,19.70
2015,05,20,14,54,19.70
2015,05,20,14,55,19.70
2015,05,20,14,56,19.70
2015,05,20,14,57,19.60
2015,05,20,14,58,19.50
2015,05,20,14,59,19.40
2015,05,20,15,00,19.50
2015,05,20,15,01,19.50
2015,05,20,15,02,19.60
2015,05,20,15,03,19.70
2015,05,20,15,04,19.70
2015,05,20,15,05,19.70
2015,05,20,15,06,19.70
2015,05,20,15,07,19.60
2015,05,20,15,08,19.60
2015,05,20,15,09,19.60
2015,05,20,15,10,19.60
2015,05,20,15,11,19.70
2015,05,20,15,12,19.70
2015,05,20,15,13,19.70
2015,05,20,15,14,19.80
2015,05,20,15,15,19.80
2015,05,20,15,16,19.80
2015,05,20,15,17,19.80
2015,05,20,15,18,19.80
2015,05,20,15,19,19.70
2015,05,20,15,20,19.60
2015,05,20,15,21,19.50
2015,05,20,15,22,19.50
2015,05,20,15,23,19.60
2015,05,20,15,24,19.60
2015,05,20,15,25,19.60
2015,05,20,15,26,19.50
2015,05,20,15,27,19.40
2015,05,20,15,28,19.30
2015,05,20,15,29,19.40
2015,05,20,15,30,19.30
2015,05,20,15,31,19.20
2015,05,20,15,32,19.20
2015,05,20,15,33,19.30
2015,05,20,15,34,19.30
2015,05,20,15,35,19.40
2015,05,20,15,36,19.40
2015,05,20,15,37,19.40
2015,05,20,15,38,19.40
2015,05,20,15,39,19.30
2015,05,20,15,40,19.40
2015,05,20,15,41,19.40
2015,05,20,15,42,19.50
2015,05,20,15,43,19.50
2015,05,20,15,44,19.40
2015,05,20,15,45,19.20
2015,05,20,15,46,19.10
2015,05,20,15,47,19.10
2015,05,20,15,48,19.10
2015,05,20,15,49,19.10
2015,05,20,15,50,19.00
2015,05,20,15,51,19.10
2015,05,20,15,52,19.20
2015,05,20,15,53,19.30
2015,05,20,15,54,19.30
2015,05,20,15,55,19.40
2015,05,20,15,56,19.50
2015,05,20,15,57,19.50
2015,05,20,15,58,19.60
2015,05,20,15,59,19.60
2015,05,20,16,00,19.60
2015,05,20,16,01,19.60
2015,05,20,16,02,19.60
2015,05,20,16,03,19.50
2015,05,20,16,04,19.40
2015,05,20,16,05,19.40
2015,05,20,16,06,19.40
2015,05,20,16,07,19.40
2015,05,20,16,08,19.40
2015,05,20,16,09,19.40
2015,05,20,16,10,19.40
2015,05,20,16,11,19.30
2015,05,20,16,12,19.20
2015,05,20,16,13,19.20
2015,05,20,16,14,19.10
2015,05,20,16,15,19.20
2015,05,20,16,16,19.20
2015,05,20,16,17,19.20
2015,05,20,16,18,19.20
2015,05,20,16,19,19.30
2015,05,20,16,20,19.30
2015,05,20,16,21,19.30
2015,05,20,16,22,19.30
2015,05,20,16,23,19.40
2015,05,20,16,24,19.40
2015,05,20,16,25,19.50
2015,05,20,16,26,19.60
2015,05,20,16,27,19.60
2015,05,20,16,28,19.60
2015,05,20,16,29,19.70
2015,05,20,16,30,19.80
2015,05,20,16,31,19.90
2015,05,20,16,32,19.90
2015,05,20,16,33,20.00
2015,05,20,16,34,20.10
2015,05,20,16,35,20.20
2015,05,20,16,36,20.20
2015,05,20,16,37,20.10
2015,05,20,16,38,20.10
2015,05,20,16,39,20.20
2015,05,20,16,40,20.40
2015,05,20,16,41,20.50
2015,05,20,16,42,20.60
2015,05,20,16,43,20.70
2015,05,20,16,44,20.80
2015,05,20,16,45,20.80
2015,05,20,16,46,20.90
2015,05,20,16,47,20.90
2015,05,20,16,48,20.90
2015,05,20,16,49,20.90
2015,05,20,16,50,21.00
2015,05,20,16,51,21.10
2015,05,20,16,52,21.10
2015,05,20,16,53,21.20
2015,05,20,16,54,21.30
2015,05,20,16,55,21.40
2015,05,20,16,56,21.40
2015,05,20,16,57,21.40
2015,05,20,16,58,21.30
2015,05,20,16,59,21.30
2015,05,20,17,00,21.30
2015,05,20,17,01,21.30
2015,05,20,17,02,21.30
2015,05,20,17,03,21.30
2015,05,20,17,04,21.30
2015,05,20,17,05,21.30
2015,05,20,17,06,21.30
2015,05,20,17,07,21.30
2015,05,20,17,08,21.40
2015,05,20,17,09,21.40
2015,05,20,17,10,21.30
2015,05,20,17,11,21.20
2015,05,20,17,12,21.20
2015,05,20,17,13,21.10
2015,05,20,17,14,21.10
2015,05,20,17,15,21.00
2015,05,20,17,16,21.00
2015,05,20,17,17,21.00
2015,05,20,17,18,21.10
2015,05,20,17,19,21.20
2015,05,20,17,20,21.30
2015,05,20,17,21,21.30
2015,05,20,17,22,21.40
2015,05,20,17,23,21.40
2015,05,20,17,24,21.50
2015,05,20,17,25,21.50
2015,05,20,17,26,21.50
2015,05,20,17,27,21.50